Location: Newark
(22.3000°N, 114.2000°E)
Time: 03:31:47
(UTC+00:00)

ISS - Visible Passes

Search period start: 21 October 2019 00:00
Search period end: 31 October 2019 00:00
Orbit: 411 x 421 km, 51.6° (Epoch: 21 October)

Date Brightness Start Highest point End Pass type
(mag) Time Alt. Az. Time Alt. Az. Time Alt. Az.
21 Oct -0.9 20:58:42 10° S 21:01:05 18° SE 21:03:27 10° E visible
22 Oct -3.3 21:45:50 10° WSW 21:49:02 42° NW 21:52:14 10° NNE visible
23 Oct -3.8 21:00:05 67° SSW 21:00:28 82° SE 21:03:49 10° NE visible
24 Oct -0.5 20:14:43 12° ENE 20:14:43 12° ENE 20:15:01 10° ENE visible
24 Oct -1.7 21:47:41 11° WNW 21:48:43 12° NW 21:50:10 10° NNW visible
25 Oct -1.4 21:02:01 14° N 21:02:01 14° N 21:02:44 10° N visible
